Flag for U.S.A. Weather past 2 weeks in Galveston, Texas, U.S.A.

Now
82 °F

Clear.


Feels Like: 89 °F
Forecast: 82 / 87 °F
Wind: 10 mph from South

Location: Scholes Field

Current Time: Aug 31, 2014 at 3:15:05 AM

Latest Report: Aug 31, 2014 at 2:52 AM


Visibility: 10 mi

Pressure: 29.96 "Hg

Humidity: 79%

Dew point: 75 °F

Location of GalvestonLocation

Historic Weather in Galveston — Graph

°F

Galveston temperature yesterday

Maximum temperature yesterday: 83 °F (at 2:52 AM)
Minimum temperature yesterday: 77 °F (at 4:52 AM)
Average temperature yesterday: 80 °F

Past Weeks' High & Low Weather Summary

 TemperatureHumidityPressure
High96 °F (Aug 25, 2:52 PM)97% (Aug 19, 5:52 AM)30.11 "Hg (Aug 19, 5:52 AM)
Low75 °F (Aug 28, 9:00 AM)44% (Aug 25, 2:52 PM)29.84 "Hg (Aug 29, 4:52 PM)
Average85 °F77%29.97 "Hg
* Reported Aug 16 1:52 AM — Aug 31 1:52 AM, Galveston, Weather by CustomWeather, © 2014

Note: Actual official high and low records may vary slightly from our data, if they occured in-between our weather recording intervals... More about our weather records

Advertising

Galveston weather history for previous 24 hours

 ConditionsComfort  
Time TempWeatherWind HumidityBarometerVisibility
1:52 AM
Aug 31
80 °FClear.6 mph90%29.96 "Hg10 mi
12:52 AM80 °FClear.7 mph87%29.98 "Hg10 mi
11:52 PM
Aug 30
81 °FPassing clouds.13 mph82%29.98 "Hg10 mi
10:52 PM81 °FPassing clouds.13 mph85%29.98 "Hg10 mi
9:52 PM80 °FPassing clouds.9 mph85%29.96 "Hg10 mi
8:52 PM79 °FClear.12 mph88%29.94 "Hg10 mi
8:02 PM80 °FBroken clouds.14 mph87%29.94 "Hg10 mi
7:52 PM80 °FScattered clouds.15 mph87%29.94 "Hg10 mi
6:52 PM80 °FScattered clouds.13 mph85%29.95 "Hg10 mi
5:52 PM80 °FPassing clouds.7 mph87%29.93 "Hg10 mi
4:52 PM79 °FBroken clouds.10 mph94%29.94 "Hg10 mi
3:59 PM80 °FLight rain. Broken clouds.10 mph94%29.95 "Hg10 mi
3:00 PM80 °FLight rain. Cloudy.9 mph94%29.94 "Hg9 mi
1:52 PM82 °FLight rain. Broken clouds.8 mph85%29.96 "Hg10 mi
12:52 PM83 °FPassing clouds.5 mph82%29.96 "Hg10 mi
11:52 AM83 °FPassing clouds.No wind82%29.96 "Hg10 mi
10:52 AM81 °FPartly sunny.5 mph85%29.95 "Hg10 mi
9:52 AM80 °FSunny.6 mph90%29.95 "Hg10 mi
8:52 AM79 °FSunny.8 mph88%29.91 "Hg10 mi
7:52 AM79 °FThunderstorms. Mostly cloudy.8 mph88%29.91 "Hg10 mi
7:03 AM81 °FThundershowers. Passing clouds.6 mph88%29.90 "Hg10 mi
6:52 AM80 °FPassing clouds.7 mph90%29.90 "Hg10 mi
5:52 AM77 °FLight rain. Passing clouds.No wind96%29.88 "Hg10 mi
4:52 AM77 °FThunderstorms. Fog.No wind94%29.91 "Hg3 mi
3:52 AM83 °FPassing clouds.16 mph79%29.88 "Hg10 mi
Weather by CustomWeather, © 2014

See weather overviewHow to use our weather pages